24h Messdaten per 11.08.2022 um 02:08:01

Datum Zeit Luftdruck Temp Balkon Feuchte Balkon Temp Strasse Feuchte Strasse Wind km/h Wind Boe Wind aus (Grad) Regen l/15min Sonne h/Monat
11.08.22 02:08:01 1020 14.3 34
11.08.22 02:03:01
11.08.22 01:58:01 1020 14.4 33
11.08.22 01:52:02 1020 14.3 33
11.08.22 01:47:02 1020 14.4 32
11.08.22 01:42:02 1021 14.5 32
11.08.22 01:37:02 1021 14.6 31
11.08.22 01:32:01 1021 14.8 31
11.08.22 01:27:01 1020 14.7 31
11.08.22 01:22:01 1020 14.8 30
11.08.22 01:17:01 1020 14.9 29
11.08.22 01:12:01 1021 15.2 28 0.0
11.08.22 01:07:01 1020 15.2 27 0.0
11.08.22 01:02:01 1020 15.5 27 0.0
11.08.22 00:57:01 1020 0.0
11.08.22 00:52:02 1020 15.6 28 0.0
11.08.22 00:47:01 1020 15.9 27 0.0
11.08.22 00:42:01 1020 16.1 27 0.0
11.08.22 00:37:02 1020 16.1 27 0.0
11.08.22 00:32:02 1020 16.4 25 0.0
11.08.22 00:27:01 1021 16.5 24 0.0
11.08.22 00:22:02 1021 16.7 23 0.0
11.08.22 00:17:02 1021 16.9 23 0.0
11.08.22 00:12:02 1021 17.3 21 0.0 0.0 112.5 0.0
11.08.22 00:07:01 1020 17.3 21 0.0 0.0 112.5 0.0
11.08.22 00:02:01 1020 17.3 20 0.0 0.0 112.5 0.0
10.08.22 23:57:01 1020 17.6 20 0.0 0.0 112.5 0.0
10.08.22 23:52:02 1021 17.7 20 0.0 0.0 112.5 0.0
10.08.22 23:47:01 1021 17.9 20 0.0 0.0 112.5 0.0
10.08.22 23:42:01 1021 18.0 20 0.0 0.0 112.5 0.0
10.08.22 23:37:01 1021 18.1 20 0.0 0.0 112.5 0.0
10.08.22 23:32:01 1021 18.3 20 0.0 0.0 112.5 0.0
10.08.22 23:28:01 1021 18.5 20 0.0 0.0 112.5 0.0
10.08.22 23:22:02 1021 18.8 20 0.0 0.0 112.5 0.0
10.08.22 23:17:01 1021 19.2 20 0.0 0.0 112.5 0.0
10.08.22 23:12:01 1021 19.4 20 0.0 0.0 112.5 0.0
10.08.22 23:07:02 1021 20.0 20 0.0 0.0 112.5 0.0
10.08.22 23:02:02 1021 20.5 20 0.0 0.0 112.5 0.0
10.08.22 22:57:02 1021 20.8 20 0.0 0.0 112.5 0.0
10.08.22 22:52:01 1021 21.1 20 0.0 0.0 112.5 0.0
10.08.22 22:47:01 1021 21.4 20 0.0 0.0 112.5 0.0
10.08.22 22:42:01 1021 21.5 20 0.0 0.0 45 0.0
10.08.22 22:37:01 1021 0.0 0.0 90 0.0
10.08.22 22:32:01 1021 0.0 0.0 67.5 0.0
10.08.22 22:27:01 1021 0.0 0.0 67.5 0.0
10.08.22 22:22:01 1020 22.5 20 0.0 0.0 67.5 0.0
10.08.22 22:17:01 1020 22.5 20 0.0 0.0 67.5 0.0
10.08.22 22:12:01 1020 22.4 20 0.0 0.0 67.5 0.0
10.08.22 22:07:02 1020 22.7 20 0.0 0.0 112.5 0.0
10.08.22 22:02:02 1020 22.7 20 0.0 0.0 45 0.0
10.08.22 21:57:02 1020 23.3 20 0.0 0.0 270 0.0
10.08.22 21:52:01 1020 23.1 20 0.0 0.0 45 0.0
10.08.22 21:47:01 1020 23.3 20 0.0 0.0 247.5 0.0
10.08.22 21:42:01 1020 23.6 20 0.0 0.0 0 0.0
10.08.22 21:37:02 1020 23.6 20 0.0 0.0 90 0.0
10.08.22 21:32:02 1020 23.9 20 0.0 0.0 225 0.0
10.08.22 21:27:02 1020 24.0 20 0.0 0.0 22.5 0.0
10.08.22 21:22:02 1020 24.3 20 0.0 0.0 22.5 0.0
10.08.22 21:17:02 1020 24.4 20 0.0 0.0 270 0.0
10.08.22 21:12:02 1020 24.6 20 0.0 0.0 225 0.0
10.08.22 21:07:01 1020 24.9 20 0.0 0.0 270 0.0
10.08.22 21:02:01 1020 25.1 20 0.0 0.0 225 0.0
10.08.22 20:57:01 1020 25.1 20 0.0 0.0 292.5 0.0
10.08.22 20:52:01 1020 25.6 20 0.0 0.0 337.5 0.0
10.08.22 20:47:01 1020 25.8 20 0.4 0.0 270 0.0
10.08.22 20:42:01 1020 26.2 20 0.7 0.0 90 0.0
10.08.22 20:37:02 1020 26.5 20 0.7 2.5 247.5 0.0
10.08.22 20:32:02 1020 27.1 20 0.4 0.0 0 0.0
10.08.22 20:27:02 1020 27.2 20 0.4 0.0 157.5 0.0
10.08.22 20:22:02 1020 27.6 20 0.7 1.4 270 0.0
10.08.22 20:17:02 1020 28.0 20 1.1 3.6 270 0.0
10.08.22 20:12:02 1020 27.9 20 0.4 0.0 337.5 0.0
10.08.22 20:07:02 1020 28.5 20 0.4 2.2 225 0.0
10.08.22 20:02:01 1020 28.6 20 0.7 0.0 270 0.0
10.08.22 19:57:01 1020 29.3 20 0.7 1.4 270 0.0
10.08.22 19:52:02 1020 29.5 20 1.1 0.0 315 0.0
10.08.22 19:47:01 1020 30.2 20 1.1 0.0 315 0.0
10.08.22 19:42:01 1020 30.0 20 1.1 1.8 337.5 0.0
10.08.22 19:37:02 1020 30.6 20 1.4 3.2 292.5 0.0
10.08.22 19:32:02 1020 31.2 20 1.1 2.9 0 0.0
10.08.22 19:27:02 1020 32.6 20 1.1 0.0 22.5 0.0
10.08.22 19:22:02 1020 31.3 20 1.4 0.0 247.5 0.0
10.08.22 19:17:01 1020 33.6 20 1.4 4.3 315 0.0
10.08.22 19:12:01 1020 33.1 20 1.8 4.7 180 0.0
10.08.22 19:07:01 1020 32.5 20 1.8 2.9 315 0.0
10.08.22 19:02:01 1020 32.3 20 1.8 1.8 337.5 0.0
10.08.22 18:57:01 1020 33.2 20 2.2 1.4 270 0.0
10.08.22 18:52:01 1020 32.9 20 2.9 2.2 270 0.0
10.08.22 18:47:01 1020 33.5 20 2.2 4.3 225 0.0
10.08.22 18:42:01 1020 33.4 20 1.8 3.2 315 0.0
10.08.22 18:37:01 1020 35.1 20 1.8 1.8 67.5 0.0
10.08.22 18:32:01 1020 37.8 20 2.5 2.9 247.5 0.0
10.08.22 18:27:01 1020 35.6 20 2.5 2.2 22.5 0.0
10.08.22 18:22:02 1020 35.5 20 2.5 5.0 270 0.0
10.08.22 18:17:01 1020 35.2 20 2.5 1.4 292.5 0.0
10.08.22 18:12:01 1020 35.9 20 3.2 6.5 247.5 0.0
10.08.22 18:07:02 1020 37.2 20 3.2 3.2 337.5 0.0
10.08.22 18:02:02 1020 34.3 20 2.9 8.3 0 0.0
10.08.22 17:57:02 1020 36.6 20 2.2 0.0 180 0.0
10.08.22 17:52:01 1020 36.2 20 1.8 0.0 337.5 0.0
10.08.22 17:47:01 1020 34.5 20 1.8 0.0 315 0.0
10.08.22 17:42:01 1020 34.7 20 1.8 2.2 270 0.0
10.08.22 17:37:02 1020 36.8 20 1.4 2.5 225 0.0
10.08.22 17:32:02 1020 37.3 20 1.8 2.9 292.5 0.0
10.08.22 17:27:02 1020 36.6 20 1.8 2.5 67.5 0.0
10.08.22 17:22:02 1020 36.7 20 1.1 3.2 270 0.0
10.08.22 17:17:02 1020 40.0 20 1.1 0.0 112.5 0.0
10.08.22 17:12:01 1020 38.7 20 1.8 2.2 337.5 0.0
10.08.22 17:07:02 1020 38.9 20 1.8 1.8 315 0.0
10.08.22 17:02:02 1021 38.8 20 1.4 0.0 135 0.0
10.08.22 16:57:02 1021 36.9 20 2.2 0.0 315 0.0
10.08.22 16:52:01 1021 39.4 20 2.2 0.0 315 0.0
10.08.22 16:47:01 1021 38.9 20 1.8 2.2 270 0.0
10.08.22 16:42:01 1021 39.2 20 1.1 2.9 0 0.0
10.08.22 16:37:01 1021 38.2 20 0.4 0.0 157.5 0.0
10.08.22 16:32:01 1021 39.6 20 1.4 0.0 112.5 0.0
10.08.22 16:27:01 1021 36.3 20 1.8 2.2 337.5 0.0
10.08.22 16:22:01 1021 36.1 20 2.2 1.4 270 0.0
10.08.22 16:17:01 1021 36.7 20 2.2 1.8 337.5 0.0
10.08.22 16:12:01 39.5 20 1.4 4.0 247.5 0.0
10.08.22 16:07:02 1021 39.0 20 1.4 0.0 45 0.0
10.08.22 16:02:02 1021 38.4 20 1.4 0.0 270 0.0
10.08.22 15:57:01 1021 37.3 20 2.5 4.3 247.5 0.0
10.08.22 15:52:02 1021 37.6 20 3.6 6.1 247.5 0.0
10.08.22 15:47:01 1021 38.7 20 2.5 4.7 292.5 0.0
10.08.22 15:42:01 1021 38.3 20 1.4 4.3 225 0.0
10.08.22 15:37:02 1021 1.4 2.2 247.5 0.0
10.08.22 15:32:02 1022 2.2 3.6 315 0.0
10.08.22 15:27:02 1022 1.8 3.2 45 0.0
10.08.22 15:22:01 1022 38.2 20 1.1 2.9 247.5 0.0
10.08.22 15:17:01 1022 37.5 20 1.1 0.0 22.5 0.0
10.08.22 15:12:01 1022 38.0 20 1.4 3.2 270 0.0
10.08.22 15:07:01 1022 39.1 20 1.8 0.0 22.5 0.0
10.08.22 15:02:01 38.1 20 2.5 4.3 0 0.0
10.08.22 14:57:01 1022 35.3 20 2.2 6.1 0 0.0
10.08.22 14:52:02 1022 37.2 20 1.4 0.0 180 0.0
10.08.22 14:47:02 1022 35.2 20 1.4 0.0 67.5 0.0
10.08.22 14:42:02 1022 33.9 20 1.8 0.0 180 0.0
10.08.22 14:37:01 1022 37.7 20 2.2 3.2 270 0.0
10.08.22 14:32:01 1022 36.6 20 2.2 2.2 270 0.0
10.08.22 14:27:01 1022 36.5 20 2.9 2.9 270 0.0
10.08.22 14:22:01 1022 36.7 20 2.5 1.4 247.5 0.0
10.08.22 14:17:01 1022 37.2 20 2.2 6.5 270 0.0
10.08.22 14:12:01 1022 37.6 20 2.2 3.2 90 0.0
10.08.22 14:07:01 1022 36.8 20 2.2 2.9 180 0.0
10.08.22 14:02:01 1022 35.9 20 2.9 5.8 247.5 0.0
10.08.22 13:57:01 1022 36.6 20 2.5 2.9 247.5 0.0
10.08.22 13:52:02 1022 36.4 20 2.2 5.0 225 0.0
10.08.22 13:47:02 1022 37.5 20 1.8 2.5 270 0.0
10.08.22 13:42:02 1023 36.3 20 2.5 4.7 247.5 0.0
10.08.22 13:37:01 1023 2.9 4.3 180 0.0
10.08.22 13:32:01 1023 3.2 1.8 202.5 0.0
10.08.22 13:27:01 1023 3.2 6.8 247.5 0.0
10.08.22 13:22:02 1023 34.9 20 2.5 3.6 225 0.0
10.08.22 13:17:02 1023 35.9 20 2.2 2.2 247.5 0.0
10.08.22 13:12:01 1023 37.5 20 1.4 4.7 315 0.0
10.08.22 13:07:01 1023 37.7 20 1.4 2.5 247.5 0.0
10.08.22 13:02:01 1023 34.2 20 1.4 0.0 67.5 0.0
10.08.22 12:57:01 1023 38.2 20 1.8 5.4 270 0.0
10.08.22 12:52:02 1023 37.8 20 2.9 4.7 247.5 0.0
10.08.22 12:47:01 1023 38.3 20 2.9 4.0 315 0.0
10.08.22 12:42:01 1023 37.6 20 2.9 4.7 270 0.0
10.08.22 12:37:01 1023 37.5 20 2.9 2.5 247.5 0.0
10.08.22 12:32:01 1023 37.5 20 2.9 4.7 270 0.0
10.08.22 12:27:01 1023 36.2 20 2.2 2.2 292.5 0.0
10.08.22 12:22:01 1023 37.5 20 1.4 2.9 225 0.0
10.08.22 12:17:01 1023 38.7 20 1.4 0.0 90 0.0
10.08.22 12:12:01 1024 37.2 20 2.5 3.2 292.5 0.0
10.08.22 12:07:02 1024 37.2 20 2.5 0.0 67.5 0.0
10.08.22 12:02:02 1024 37.2 20 2.9 4.0 225 0.0
10.08.22 11:57:02 1024 36.3 20 2.9 3.2 225 0.0
10.08.22 11:52:01 1024 37.7 20 2.5 3.6 247.5 0.0
10.08.22 11:47:01 1024 38.1 20 2.5 2.2 0 0.0
10.08.22 11:42:01 1024 37.4 20 2.9 4.7 315 0.0
10.08.22 11:37:01 1024 38.0 20 2.9 2.9 202.5 0.0
10.08.22 11:32:01 1024 37.7 20 2.9 4.7 247.5 0.0
10.08.22 11:27:01 1024 37.7 20 3.2 2.5 337.5 0.0
10.08.22 11:22:01 1024 37.5 20 3.2 3.6 135 0.0
10.08.22 11:17:01 1024 36.1 20 2.5 2.2 292.5 0.0
10.08.22 11:12:01 1024 36.1 20 2.2 2.9 270 0.0
10.08.22 11:07:01 1024 34.5 20 2.2 3.2 315 0.0
10.08.22 11:02:01 1024 35.9 20 1.8 4.0 315 0.0
10.08.22 10:57:01 1024 36.5 20 1.4 4.3 337.5 0.0
10.08.22 10:52:02 1024 35.4 20 0.7 1.8 315 0.0
10.08.22 10:47:02 1024 34.0 20 1.4 0.0 135 0.0
10.08.22 10:42:01 1024 36.1 20 2.5 3.6 0 0.0
10.08.22 10:37:02 1024 34.8 20 2.5 4.7 247.5 0.0
10.08.22 10:32:02 1024 33.5 20 2.9 7.9 247.5 0.0
10.08.22 10:27:02 1024 33.9 20 1.8 2.5 270 0.0
10.08.22 10:22:01 1024 34.5 20 1.4 2.9 315 0.0
10.08.22 10:17:01 1024 35.0 20 1.4 1.8 247.5 0.0
10.08.22 10:12:01 1024 34.3 20 1.1 2.5 247.5 0.0
10.08.22 10:07:02 1024 34.0 20 1.8 2.9 337.5 0.0
10.08.22 10:02:02 1024 33.0 20 1.8 3.2 247.5 0.0
10.08.22 09:57:02 1024 33.9 20 1.4 2.9 247.5 0.0
10.08.22 09:52:01 1024 32.4 20 1.1 0.0 247.5 0.0
10.08.22 09:47:01 1024 33.0 20 1.1 0.0 22.5 0.0
10.08.22 09:42:01 1024 31.7 20 1.1 0.0 270 0.0
10.08.22 09:37:01 1024 31.5 20 1.1 2.9 22.5 0.0
10.08.22 09:32:01 1024 31.1 20 0.7 0.0 337.5 0.0
10.08.22 09:27:01 1024 31.4 20 1.1 2.9 180 0.0
10.08.22 09:22:01 1024 1.4 0.0 180 0.0
10.08.22 09:17:01 1024 1.4 1.4 337.5 0.0
10.08.22 09:12:01 1.8 0.0 225 0.0
10.08.22 09:07:01 1024 28.8 20 1.4 4.7 292.5 0.0
10.08.22 09:02:01 1024 29.5 20 1.4 2.9 225 0.0
10.08.22 08:57:01 1024 29.0 20 1.4 2.9 247.5 0.0
10.08.22 08:52:01 1024 1.8 2.9 112.5 0.0
10.08.22 08:47:01 1024 2.2 3.6 270 0.0
10.08.22 08:42:01 1024 1.4 5.4 247.5 0.0
10.08.22 08:37:01 1024 25.1 20 2.2 3.2 315 0.0
10.08.22 08:32:01 1024 23.2 23 2.2 2.5 157.5 0.0
10.08.22 08:27:01 1024 20.1 29 1.4 2.2 135 0.0
10.08.22 08:22:02 1024 17.4 32 1.1 3.6 202.5 0.0
10.08.22 08:17:02 1024 1.4 0.0 180 0.0
10.08.22 08:12:01 1024 16.6 35 1.8 2.5 225 0.0
10.08.22 08:07:02 1024 15.9 38 1.8 2.5 247.5 0.0
10.08.22 08:02:02 1024 15.4 41 1.4 4.0 157.5 0.0
10.08.22 07:57:02 1024 14.9 43 1.1 0.0 180 0.0
10.08.22 07:52:01 1024 14.0 46 1.4 0.0 180 0.0
10.08.22 07:47:01 1024 13.2 46 1.8 0.0 225 0.0
10.08.22 07:42:01 1024 13.0 46 1.8 2.9 247.5 0.0
10.08.22 07:37:02 1024 12.9 47 1.4 0.0 247.5 0.0
10.08.22 07:32:02 1024 12.8 47 1.4 4.7 270 0.0
10.08.22 07:27:02 1024 12.6 47 1.8 2.5 247.5 0.0
10.08.22 07:22:02 1024 12.4 48 1.4 1.4 202.5 0.0
10.08.22 07:17:02 1024 12.2 48 1.4 2.2 180 0.0
10.08.22 07:12:02 1024 12.0 48 1.4 1.8 247.5 0.0
10.08.22 07:07:01 1024 11.9 48 1.1 2.2 270 0.0
10.08.22 07:02:01 1024 11.9 48 1.4 2.2 292.5 0.0
10.08.22 06:57:01 1024 11.8 50 1.1 4.3 247.5 0.0
10.08.22 06:52:02 1024 11.8 50 0.7 2.9 247.5 0.0
10.08.22 06:47:02 1024 11.4 52 0.7 0.0 247.5 0.0
10.08.22 06:42:02 1024 11.3 52 0.4 1.8 22.5 0.0
10.08.22 06:37:01 1024 11.1 52 0.0 0.0 225 0.0
10.08.22 06:32:01 1024 11.2 52 0.0 0.0 247.5 0.0
10.08.22 06:27:01 1023 11.2 52 0.0 0.0 225 0.0
10.08.22 06:22:01 1023 11.2 52 0.0 0.0 180 0.0
10.08.22 06:17:01 1023 11.1 52 0.0 0.0 0 0.0
10.08.22 06:12:01 1023 11.0 52 0.0 0.0 157.5 0.0
10.08.22 06:07:02 1023 10.8 51 0.0 0.0 180 0.0
10.08.22 06:02:02 1023 10.8 51 0.0 2.2 270 0.0
10.08.22 05:57:01 1023 11.0 51 0.0 0.0 247.5 0.0
10.08.22 05:52:02 1023 11.1 51 0.0 0.0 112.5 0.0
10.08.22 05:47:02 1024 11.1 50 0.0 0.0 67.5 0.0
10.08.22 05:42:02 1024 11.1 50 0.0 0.0 22.5 0.0
10.08.22 05:37:01 1024 11.2 50 0.0 0.0 67.5 0.0
10.08.22 05:32:01 1024 11.3 49 0.0 0.0 112.5 0.0
10.08.22 05:27:01 1024 11.3 50 0.0 0.0 112.5 0.0
10.08.22 05:22:02 1024 11.1 48 0.0 0.0 90 0.0
10.08.22 05:17:02 1024 11.1 47 0.0 0.0 90 0.0
10.08.22 05:12:02 1024 11.2 47 0.0 0.0 67.5 0.0
10.08.22 05:07:01 1024 0.0 0.0 90 0.0
10.08.22 05:02:01 0.0 0.0 135 0.0
10.08.22 04:57:01 1024 12.1 47 0.0 0.0 90 0.0
10.08.22 04:52:01 1024 12.2 46 0.0 0.0 112.5 0.0
10.08.22 04:47:01 1024 12.3 46 0.0 0.0 112.5 0.0
10.08.22 04:42:01 1024 12.3 46 0.0 0.0 112.5 0.0
10.08.22 04:37:01 1024 12.3 46 0.0 0.0 67.5 0.0
10.08.22 04:32:01 1024 12.4 45 0.0 0.0 112.5 0.0
10.08.22 04:27:01 12.5 45 0.0 0.0 90 0.0
10.08.22 04:22:02 1024 12.6 44 0.0 0.0 67.5 0.0
10.08.22 04:17:02 1024 12.7 44 0.0 0.0 67.5 0.0
10.08.22 04:12:02 1024 0.0 0.0 112.5 0.0
10.08.22 04:07:01 1024 12.7 44 0.0 0.0 45 0.0
10.08.22 04:02:01 1024 12.8 43 0.0 0.0 45 0.0
10.08.22 03:57:01 1024 0.0 0.0 90 0.0
10.08.22 03:52:02 1024 12.9 43 0.0 0.0 112.5 0.0
10.08.22 03:47:01 1024 12.9 43 0.0 0.0 90 0.0
10.08.22 03:42:01 1024 12.9 43 0.0 0.0 90 0.0
10.08.22 03:37:02 1024 12.9 43 0.0 0.0 67.5 0.0
10.08.22 03:32:02 1024 12.9 43 0.0 0.0 22.5 0.0
10.08.22 03:27:02 1024 12.7 43 0.0 0.0 67.5 0.0
10.08.22 03:22:02 1024 12.9 42 0.0 0.0 22.5 0.0
10.08.22 03:17:02 1024 12.9 42 0.0 0.0 22.5 0.0
10.08.22 03:12:01 1024 13.1 42 0.0 0.0 45 0.0
10.08.22 03:07:01 1024 13.3 41 0.0 0.0 67.5 0.0
10.08.22 03:02:01 1024 13.4 41 0.4 0.0 112.5 0.0
10.08.22 02:57:01 1024 13.5 40 0.4 0.0 135 0.0
10.08.22 02:52:02 1024 13.5 40 0.4 2.2 135 0.0
10.08.22 02:47:02 1024 0.4 1.8 112.5 0.0
10.08.22 02:42:02 1024 13.8 39 1.1 1.8 67.5 0.0
10.08.22 02:37:01 1024 13.8 39 0.7 0.0 135 0.0
10.08.22 02:32:01 1024 1.1 0.0 135 0.0
10.08.22 02:27:01 1024 14.0 39 1.4 1.8 135 0.0
10.08.22 02:22:02 1024 14.1 38 0.7 0.0 112.5 0.0
10.08.22 02:17:02 1022 14.3 38 0.4 1.8 112.5 0.0
10.08.22 02:12:02 1024 14.2 38 0.0 0.0 135 0.0
Index
© 2002-2021 Thomas Dreßler
Alle Rechte vorbehalten
letzte Scriptänderung 21.03.2021